When you browse on this site, cookies collect data to enhance your experience and personalize the content and advertising you see.
Visit our Privacy Policy to learn more. By continuing to use the site, you agree to this use of cookies and data.
  • en Suisse
  • Liste des pays
  • À 7 jours
  • Température de l'eau
  • Carte satellitaire
  • Carte météo
  • Widgets météo
  • user-avatar
    Se connecter

    Météo par heure à Nizhnee Isakovo

    Ce jour, 22 Juillet, Lundi

    Heure Température Précipitation Vent Pression Humidité
    00:00 +15°C° 0 mm 1 m/s 743 mmHg 90%
    01:00 +15°C° 0 mm 1 m/s 743 mmHg 91%
    02:00 +13°C° 0 mm 0 m/s 743 mmHg 91%
    03:00 +15°C° 0 mm 1 m/s 743 mmHg 91%
    04:00 +15°C° 0 mm 1 m/s 743 mmHg 91%
    05:00 +16°C° 0 mm 1 m/s 744 mmHg 91%
    06:00 +18°C° 0 mm 1 m/s 743 mmHg 87%
    07:00 +20°C° 0 mm 1 m/s 743 mmHg 82%
    08:00 +21°C° 0 mm 1 m/s 743 mmHg 77%
    09:00 +23°C° 0 mm 1 m/s 743 mmHg 71%
    10:00 +24°C° 0 mm 1 m/s 743 mmHg 66%
    11:00 +25°C° 0 mm 1 m/s 743 mmHg 61%
    12:00 +25°C° 0 mm 2 m/s 743 mmHg 59%
    13:00 +25°C° 0 mm 2 m/s 742 mmHg 57%
    14:00 +26°C° 0 mm 2 m/s 742 mmHg 56%
    15:00 +26°C° 0 mm 2 m/s 742 mmHg 59%
    16:00 +26°C° 0 mm 2 m/s 742 mmHg 63%
    17:00 +25°C° 0 mm 2 m/s 741 mmHg 67%
    18:00 +24°C° 0.2 mm 2 m/s 741 mmHg 73%
    19:00 +21°C° 0.2 mm 2 m/s 741 mmHg 78%
    20:00 +19°C° 0.2 mm 2 m/s 740 mmHg 84%
    21:00 +18°C° 0.1 mm 2 m/s 740 mmHg 87%
    22:00 +18°C° 0.1 mm 2 m/s 740 mmHg 90%
    23:00 +19°C° 0.1 mm 1 m/s 740 mmHg 93%

    Demain, 23 Juillet, Mardi

    Heure Température Précipitation Vent Pression Humidité
    00:00 +17°C° 0.4 mm 2 m/s 740 mmHg 93%
    01:00 +17°C° 0.4 mm 2 m/s 739 mmHg 93%
    02:00 +17°C° 0.4 mm 2 m/s 739 mmHg 93%
    03:00 +17°C° 0.1 mm 3 m/s 739 mmHg 94%
    04:00 +17°C° 0.1 mm 3 m/s 739 mmHg 95%
    05:00 +17°C° 0.1 mm 4 m/s 738 mmHg 95%
    06:00 +18°C° 0.1 mm 4 m/s 738 mmHg 93%
    07:00 +19°C° 0.1 mm 4 m/s 738 mmHg 92%
    08:00 +19°C° 0.1 mm 4 m/s 738 mmHg 90%
    09:00 +20°C° 0.1 mm 4 m/s 738 mmHg 85%
    10:00 +21°C° 0.1 mm 4 m/s 738 mmHg 80%
    11:00 +22°C° 0.1 mm 4 m/s 738 mmHg 75%
    12:00 +22°C° 0 mm 3 m/s 738 mmHg 72%
    13:00 +24°C° 0 mm 3 m/s 738 mmHg 69%
    14:00 +24°C° 0 mm 3 m/s 737 mmHg 66%
    15:00 +24°C° 0 mm 3 m/s 737 mmHg 67%
    16:00 +24°C° 0 mm 2 m/s 738 mmHg 68%
    17:00 +24°C° 0 mm 2 m/s 738 mmHg 70%
    18:00 +22°C° 0 mm 1 m/s 737 mmHg 76%
    19:00 +20°C° 0 mm 1 m/s 737 mmHg 83%
    20:00 +17°C° 0 mm 0 m/s 737 mmHg 89%
    21:00 +16°C° 0.1 mm 0 m/s 737 mmHg 90%
    22:00 +16°C° 0.1 mm 0 m/s 737 mmHg 91%
    23:00 +16°C° 0.1 mm 0 m/s 738 mmHg 92%

    Après-demain, 24 Juillet, Mercredi

    Heure Température Précipitation Vent Pression Humidité
    00:00 +18°C° 0 mm 1 m/s 737 mmHg 92%
    01:00 +16°C° 0 mm 1 m/s 737 mmHg 93%
    02:00 +16°C° 0 mm 1 m/s 737 mmHg 93%
    03:00 +16°C° 0.6 mm 1 m/s 737 mmHg 94%
    04:00 +16°C° 0.6 mm 2 m/s 737 mmHg 94%
    05:00 +16°C° 0.6 mm 2 m/s 737 mmHg 95%
    06:00 +17°C° 0.9 mm 2 m/s 737 mmHg 93%
    07:00 +17°C° 0.9 mm 3 m/s 737 mmHg 92%
    08:00 +17°C° 0.9 mm 3 m/s 737 mmHg 90%
    09:00 +17°C° 0.1 mm 3 m/s 737 mmHg 89%
    10:00 +17°C° 0.1 mm 3 m/s 737 mmHg 88%
    11:00 +17°C° 0.1 mm 3 m/s 738 mmHg 87%
    12:00 +17°C° 0 mm 2 m/s 738 mmHg 86%
    13:00 +17°C° 0 mm 2 m/s 738 mmHg 86%
    14:00 +18°C° 0 mm 2 m/s 738 mmHg 85%
    15:00 +19°C° 0 mm 1 m/s 738 mmHg 85%
    16:00 +19°C° 0 mm 1 m/s 738 mmHg 84%
    17:00 +19°C° 0 mm 1 m/s 738 mmHg 83%
    18:00 +18°C° 0 mm 1 m/s 738 mmHg 84%
    19:00 +16°C° 0 mm 1 m/s 738 mmHg 86%
    20:00 +16°C° 0 mm 1 m/s 738 mmHg 88%
    21:00 +15°C° 0 mm 1 m/s 738 mmHg 90%
    22:00 +14°C° 0 mm 1 m/s 738 mmHg 92%
    23:00 +14°C° 0 mm 1 m/s 738 mmHg 94%

    25 Juillet, Jeudi

    Heure Température Précipitation Vent Pression Humidité
    00:00 +14°C° 0 mm 1 m/s 737 mmHg 95%
    01:00 +13°C° 0 mm 1 m/s 737 mmHg 95%
    02:00 +13°C° 0 mm 1 m/s 737 mmHg 95%
    03:00 +12°C° 0 mm 0 m/s 737 mmHg 95%
    04:00 +13°C° 0 mm 0 m/s 737 mmHg 94%
    05:00 +13°C° 0 mm 0 m/s 738 mmHg 94%
    06:00 +15°C° 0 mm 0 m/s 738 mmHg 89%
    07:00 +18°C° 0 mm 1 m/s 738 mmHg 85%
    08:00 +20°C° 0 mm 1 m/s 738 mmHg 80%
    09:00 +20°C° 0 mm 1 m/s 738 mmHg 78%
    10:00 +20°C° 0 mm 2 m/s 738 mmHg 76%
    11:00 +21°C° 0 mm 2 m/s 739 mmHg 74%
    12:00 +21°C° 0.8 mm 2 m/s 739 mmHg 76%
    13:00 +21°C° 0.8 mm 3 m/s 739 mmHg 78%
    14:00 +22°C° 0.8 mm 3 m/s 739 mmHg 79%
    15:00 +21°C° 0.5 mm 4 m/s 739 mmHg 82%
    16:00 +20°C° 0.5 mm 4 m/s 739 mmHg 85%
    17:00 +20°C° 0.5 mm 5 m/s 739 mmHg 88%
    18:00 +19°C° 0 mm 4 m/s 739 mmHg 91%
    19:00 +18°C° 0 mm 4 m/s 739 mmHg 93%
    20:00 +17°C° 0 mm 3 m/s 739 mmHg 96%
    21:00 +16°C° 0 mm 3 m/s 739 mmHg 97%
    22:00 +16°C° 0 mm 3 m/s 739 mmHg 97%
    23:00 +16°C° 0 mm 3 m/s 739 mmHg 97%

    26 Juillet, Vendredi

    Heure Température Précipitation Vent Pression Humidité
    00:00 +16°C° 0 mm 3 m/s 739 mmHg 97%
    01:00 +16°C° 0 mm 3 m/s 739 mmHg 96%
    02:00 +16°C° 0 mm 3 m/s 739 mmHg 96%
    03:00 +15°C° 0 mm 4 m/s 739 mmHg 95%
    04:00 +17°C° 0 mm 4 m/s 739 mmHg 95%
    05:00 +16°C° 0 mm 5 m/s 739 mmHg 94%
    06:00 +17°C° 0 mm 5 m/s 739 mmHg 92%
    07:00 +19°C° 0 mm 5 m/s 739 mmHg 89%
    08:00 +20°C° 0 mm 5 m/s 739 mmHg 87%
    09:00 +21°C° 0.3 mm 5 m/s 739 mmHg 85%
    10:00 +21°C° 0.3 mm 5 m/s 739 mmHg 83%
    11:00 +22°C° 0.3 mm 5 m/s 739 mmHg 82%
    12:00 +21°C° 0.2 mm 4 m/s 739 mmHg 83%
    13:00 +21°C° 0.2 mm 3 m/s 739 mmHg 83%
    14:00 +21°C° 0.2 mm 2 m/s 739 mmHg 84%
    15:00 +21°C° 1 mm 2 m/s 739 mmHg 84%
    16:00 +22°C° 1 mm 3 m/s 738 mmHg 84%
    17:00 +22°C° 1 mm 3 m/s 738 mmHg 84%
    18:00 +21°C° 0.2 mm 3 m/s 738 mmHg 86%
    19:00 +20°C° 0.2 mm 2 m/s 738 mmHg 88%
    20:00 +19°C° 0.2 mm 2 m/s 739 mmHg 90%
    21:00 +18°C° 0 mm 2 m/s 738 mmHg 91%
    22:00 +18°C° 0 mm 3 m/s 738 mmHg 92%
    23:00 +18°C° 0 mm 3 m/s 738 mmHg 93%

    27 Juillet, Samedi

    Heure Température Précipitation Vent Pression Humidité
    00:00 +18°C° 0.2 mm 3 m/s 738 mmHg 93%
    01:00 +18°C° 0.2 mm 4 m/s 738 mmHg 93%
    02:00 +18°C° 0.2 mm 4 m/s 738 mmHg 94%
    03:00 +18°C° 0 mm 4 m/s 738 mmHg 95%
    04:00 +18°C° 0 mm 3 m/s 738 mmHg 95%
    05:00 +17°C° 0 mm 3 m/s 738 mmHg 96%
    06:00 +19°C° 0 mm 3 m/s 738 mmHg 93%
    07:00 +20°C° 0 mm 4 m/s 738 mmHg 90%
    08:00 +21°C° 0 mm 4 m/s 738 mmHg 87%
    09:00 +22°C° 0.6 mm 4 m/s 738 mmHg 83%
    10:00 +23°C° 0.6 mm 4 m/s 738 mmHg 79%
    11:00 +25°C° 0.6 mm 5 m/s 738 mmHg 75%
    12:00 +25°C° 0.8 mm 5 m/s 738 mmHg 74%
    13:00 +26°C° 0.8 mm 5 m/s 738 mmHg 72%
    14:00 +26°C° 0.8 mm 5 m/s 738 mmHg 71%
    15:00 +26°C° 0.2 mm 5 m/s 737 mmHg 73%
    16:00 +26°C° 0.2 mm 5 m/s 737 mmHg 75%
    17:00 +26°C° 0.2 mm 4 m/s 737 mmHg 77%
    18:00 +23°C° 0.1 mm 4 m/s 737 mmHg 81%
    19:00 +22°C° 0.1 mm 3 m/s 737 mmHg 85%
    20:00 +20°C° 0.1 mm 3 m/s 737 mmHg 89%
    21:00 +20°C° 0 mm 3 m/s 738 mmHg 90%
    22:00 +19°C° 0 mm 3 m/s 738 mmHg 92%
    23:00 +18°C° 0 mm 3 m/s 738 mmHg 94%
    Voir plus